Hanford, CA

8:26 PM PDT on July 22, 2017 (GMT -0700)
Hanford Municipal

Weather History for KHJO - April, 2013

Change the Weather History Date:

Tuesday, April 30, 2013

  Actual Average Record
Temperature  
Mean Temperature 75 °F 65 °F  
Max Temperature 88 °F 80 °F 96 °F (2015)
Min Temperature 61 °F 50 °F 37 °F (2010)
Degree Days  
Heating Degree Days 0    
Month to date heating degree days 72  
Since 1 July heating degree days 2318  
Cooling Degree Days 10    
Month to date cooling degree days 58  
Year to date cooling degree days 64  
Growing Degree Days 25 (Base 50)    
Moisture  
Dew Point 40 °F    
Average Humidity 35    
Maximum Humidity 56    
Minimum Humidity 14    
Precipitation  
Precipitation 0.00 in 0.02 in 0.61 in (1941)
Month to date precipitation 0.08 0.79  
Year to date precipitation 1.42 6.19  
Since 1 July precipitation 3.42  
Snow  
Snow 0.00 in - - ()
Month to date snowfall 0.0  
Since 1 July snowfall 0.0  
Snow Depth 0.00 in    
Sea Level Pressure  
Sea Level Pressure 29.75 in    
Wind  
Wind Speed 12 mph (NW)    
Max Wind Speed 24 mph    
Max Gust Speed 31 mph    
Visibility 10 miles    
Events      
T = Trace of Precipitation, MM = Missing Value Source: NWS Daily Summary

Daily Weather History Graph

Daily Weather History Graph

Search for Another Location

Airport or City:

Trip Planner

Search our weather history database for the weather conditions in past years. The results will help you decide how hot, cold, wet, or windy it might be!

Date:

Astronomy

Apr. 30, 2013 Rise Set
Actual Time 6:06 AM PDT 7:45 PM PDT
Civil Twilight 5:38 AM PDT 8:13 PM PDT
Nautical Twilight 5:05 AM PDT 8:46 PM PDT
Astronomical Twilight 4:30 AM PDT 9:21 PM PDT
Moon 12:11 AM PDT (4/30) 10:42 AM PDT (4/30)
Length of Visible Light 14h 34m
Length of Day
13h 39m
Waning Gibbous, 69% of the Moon is Illuminated
Apr 30
Waning Gibbous
May 2
Last Quarter
May 9
New
May 17
First Quarter
May 24
Full

Hourly Weather History & Observations

Time (PDT) Temp. Dew Point Humidity Pressure Visibility Wind Dir Wind Speed Gust Speed Precip Events Conditions
12:53 AM 69.1 °F 45.0 °F 42% 29.73 in 10.0 mi NNW 4.6 mph - N/A   Clear
1:53 AM 66.0 °F 45.0 °F 47% 29.72 in 10.0 mi NNW 4.6 mph - N/A   Clear
2:53 AM 68.0 °F 44.1 °F 42% 29.71 in 10.0 mi NW 8.1 mph - N/A   Clear
3:53 AM 62.1 °F 46.9 °F 58% 29.72 in 10.0 mi Calm Calm - N/A   Clear
4:53 AM 68.0 °F 46.9 °F 47% 29.72 in 10.0 mi NNW 9.2 mph - N/A   Clear
5:53 AM 66.0 °F 48.0 °F 52% 29.73 in 10.0 mi NNW 11.5 mph - N/A   Clear
6:53 AM 66.0 °F 48.0 °F 52% 29.75 in 10.0 mi NNW 12.7 mph - N/A   Clear
7:53 AM 68.0 °F 46.9 °F 47% 29.77 in 10.0 mi NNW 13.8 mph - N/A   Clear
8:53 AM 72.0 °F 45.0 °F 38% 29.78 in 9.0 mi NW 18.4 mph - N/A   Clear
9:53 AM 75.0 °F 43.0 °F 32% 29.79 in 10.0 mi NW 17.3 mph 24.2 mph N/A   Clear
10:44 AM 77.0 °F 44.6 °F 32% 29.79 in 10.0 mi NNW 15.0 mph - N/A   Partly Cloudy
10:53 AM 77.0 °F 44.1 °F 31% 29.79 in 10.0 mi NNW 12.7 mph 19.6 mph N/A   Partly Cloudy
11:53 AM 82.0 °F 45.0 °F 27% 29.77 in 10.0 mi NNW 11.5 mph - N/A   Clear
12:53 PM 82.0 °F 42.1 °F 24% 29.76 in 10.0 mi NW 16.1 mph 23.0 mph N/A   Clear
1:53 PM 84.9 °F 43.0 °F 23% 29.76 in 10.0 mi NW 13.8 mph - N/A   Clear
2:53 PM 88.0 °F 37.9 °F 17% 29.75 in 8.0 mi NNW 18.4 mph 24.2 mph N/A   Clear
3:53 PM 87.1 °F 32.0 °F 14% 29.73 in 9.0 mi NNW 17.3 mph 25.3 mph N/A   Clear
5:33 PM 87.8 °F 32.0 °F 14% 29.72 in 10.0 mi NNW 15.0 mph 21.9 mph N/A   Partly Cloudy
5:53 PM 86.0 °F 30.9 °F 14% 29.72 in 10.0 mi NNW 18.4 mph 23.0 mph N/A   Partly Cloudy
6:53 PM 82.9 °F 34.0 °F 17% 29.72 in 9.0 mi NW 16.1 mph - N/A   Clear
7:53 PM 78.1 °F 37.0 °F 23% 29.73 in 10.0 mi NW 15.0 mph - N/A   Clear
8:53 PM 75.0 °F 39.0 °F 27% 29.75 in 10.0 mi NW 12.7 mph - N/A   Clear
9:53 PM 73.0 °F 35.1 °F 25% 29.78 in 10.0 mi WNW 15.0 mph - N/A   Clear
10:53 PM 71.1 °F 30.0 °F 22% 29.79 in 10.0 mi NW 15.0 mph - N/A   Clear
11:53 PM 70.0 °F 27.0 °F 20% 29.80 in 10.0 mi NW 13.8 mph - N/A   Clear